Location: Canyon City
(32.5951°N, 116.5278°W)
Time: 01:42:33
(UTC+00:00)

Cosmos 2237 - Pass Details

Date: 08 September 2024
Orbit: 848 x 853 km, 70.8° (Epoch: 10 October)

Event Time Altitude Azimuth Distance (km) Brightness Sun altitude
Rises 12:03:36 0° 332° (NNW) 3,413 7.3 -17.7°
Reaches altitude 10° 12:06:08 10° 327° (NNW) 2,474 6.5 -17.2°
Maximum altitude 12:11:34 48° 254° (WSW) 1,091 4.4 -16.1°
Drops below altitude 10° 12:16:58 10° 181° (S) 2,461 6.4 -15.0°
Sets 12:19:29 0° 176° (S) 3,393 7.2 -14.5°
